Starlink 3913

operational
NORAD ID: 52485 Int'l Des: 2022-049 Owner: SPXS Country: US Constellation: starlink
LEOCIRCULAR

Über Starlink 3913

Beschreibung wird geladen...

Live-Position

3D-Globus wird geladen...

Nächste Überflüge

Höhenverlauf

Altitude vs Time

uPlot chart will show altitude changes over time

Zweizeiliger Elementsatz

1 52485U 22049AL 26063.34464667 .00000063 00000-0 22058-4 0 9998
2 52485 53.2178 73.1168 0001435 86.7763 273.3393 15.08836797211589
Epoch: 4. März 2026 • Age: 21 hours

Aktueller Status

Höhe 540.1 km
Geschwindigkeit 7.60 km/s
Subsatellitenpunkt 24.46°N, 29.05°W
Startdatum 6. Mai 2022
Alter 3.8 years
Typ internet

Technische Details

Klassifizierung Payload
Masse 297.00 kg
Trockenmasse 220.00 kg
Gesamtmasse 297.00 kg
Länge 0.20 m
Durchmesser 2.80 m
Spannweite 9.00 m
Form Box + pan
Hersteller SPXS
Bus-Typ Starlink
Phasenstatus In Orbit
Besitzer/Staat SPXS/US

Große Konstellationen

Loading constellations...